TimeCDT,TemperatureF,Dew PointF,Humidity,Sea Level PressureIn,VisibilityMPH,Wind Direction,Wind SpeedMPH,Gust SpeedMPH,PrecipitationIn,Events,Conditions,WindDirDegrees,DateUTC
12:02 AM,59.0,55.4,88,30.03,10.0,Calm,Calm,-,N/A,,Overcast,0,2012-10-03 05:02:00
12:53 AM,59.0,55.0,87,29.99,9.0,Calm,Calm,-,N/A,,Overcast,0,2012-10-03 05:53:00
1:53 AM,57.0,55.0,93,30.02,6.0,Calm,Calm,-,N/A,,Overcast,0,2012-10-03 06:53:00
2:53 AM,57.9,55.0,90,30.03,8.0,Calm,Calm,-,N/A,,Overcast,0,2012-10-03 07:53:00
3:50 AM,57.2,55.4,94,30.06,8.0,Calm,Calm,-,N/A,,Overcast,0,2012-10-03 08:50:00
3:53 AM,57.9,55.0,90,30.03,8.0,Calm,Calm,-,N/A,,Overcast,0,2012-10-03 08:53:00
4:29 AM,57.2,53.6,88,30.07,5.0,Calm,Calm,-,N/A,,Scattered Clouds,0,2012-10-03 09:29:00
4:53 AM,55.9,54.0,93,30.05,4.0,Calm,Calm,-,N/A,,Clear,0,2012-10-03 09:53:00
5:14 AM,55.4,53.6,94,30.09,1.8,Calm,Calm,-,N/A,,Clear,0,2012-10-03 10:14:00
5:33 AM,55.4,51.8,88,30.10,0.5,Calm,Calm,-,N/A,Fog,Fog,0,2012-10-03 10:33:00
5:53 AM,54.0,52.0,93,30.07,0.5,Calm,Calm,-,N/A,Fog,Fog,0,2012-10-03 10:53:00
6:03 AM,55.4,51.8,88,30.10,0.2,Calm,Calm,-,N/A,Fog,Fog,0,2012-10-03 11:03:00
6:14 AM,55.4,51.8,88,30.10,0.2,Calm,Calm,-,N/A,Fog,Fog,0,2012-10-03 11:14:00
6:29 AM,55.4,51.8,88,30.11,0.2,Calm,Calm,-,0.01,Fog,Fog,0,2012-10-03 11:29:00
6:53 AM,55.0,52.0,89,30.10,0.2,Calm,Calm,-,0.01,Fog,Fog,0,2012-10-03 11:53:00
7:53 AM,55.9,52.0,87,30.12,0.2,Calm,Calm,-,N/A,Fog,Fog,0,2012-10-03 12:53:00
8:31 AM,57.2,55.4,94,30.15,0.5,Calm,Calm,-,N/A,Fog,Fog,0,2012-10-03 13:31:00
8:36 AM,57.2,55.4,94,30.15,1.0,Calm,Calm,-,N/A,,Overcast,0,2012-10-03 13:36:00
8:43 AM,57.2,53.6,88,30.16,3.0,South,3.5,-,N/A,,Overcast,180,2012-10-03 13:43:00
8:53 AM,57.9,54.0,87,30.13,5.0,Calm,Calm,-,N/A,,Overcast,0,2012-10-03 13:53:00
9:21 AM,60.8,55.4,82,30.17,10.0,Calm,Calm,-,N/A,,Scattered Clouds,0,2012-10-03 14:21:00
9:53 AM,63.0,55.0,75,30.14,10.0,Variable,3.5,-,N/A,,Clear,0,2012-10-03 14:53:00
10:53 AM,64.9,53.1,65,30.14,10.0,SSW,3.5,-,N/A,,Clear,200,2012-10-03 15:53:00
11:53 AM,66.0,51.1,59,30.13,10.0,Variable,3.5,-,N/A,,Clear,0,2012-10-03 16:53:00
12:53 PM,66.0,50.0,56,30.12,10.0,WSW,4.6,-,N/A,,Clear,240,2012-10-03 17:53:00
1:53 PM,66.9,51.1,57,30.11,10.0,Calm,Calm,-,N/A,,Clear,0,2012-10-03 18:53:00
2:53 PM,69.1,53.1,57,30.10,10.0,Variable,4.6,-,N/A,,Partly Cloudy,0,2012-10-03 19:53:00
3:53 PM,66.9,53.1,61,30.11,10.0,South,3.5,-,N/A,,Clear,170,2012-10-03 20:53:00
4:53 PM,66.9,53.1,61,30.12,10.0,Variable,3.5,-,N/A,,Scattered Clouds,0,2012-10-03 21:53:00
5:53 PM,64.9,54.0,68,30.13,10.0,Calm,Calm,-,N/A,,Clear,0,2012-10-03 22:53:00
6:53 PM,59.0,55.9,90,30.14,10.0,Calm,Calm,-,N/A,,Clear,0,2012-10-03 23:53:00
7:53 PM,57.0,54.0,89,30.16,10.0,Calm,Calm,-,N/A,,Clear,0,2012-10-04 00:53:00
8:53 PM,55.9,53.1,90,30.19,7.0,Calm,Calm,-,N/A,,Clear,0,2012-10-04 01:53:00
10:53 PM,53.1,51.1,93,30.20,7.0,Calm,Calm,-,N/A,,Clear,0,2012-10-04 03:53:00
11:53 PM,53.1,51.1,93,30.21,10.0,Calm,Calm,-,N/A,,Clear,0,2012-10-04 04:53:00